FW1404 Weather Reports


Display with metric or nautical units.
time (UTC)temp
F
wind
direction
speed
MPH
gust
MPH
rain 1hr
in
rain 24hr
in
rain mn
in
humidity
%
barometer
mb
20260903092119 70 238 12.0 13.0 0.00 0.00 0.00 70 1017.8
20260903092110 71 227 11.0 13.0 0.00 0.00 0.00 70 1017.8
20260903091048 70 201 7.0 13.0 0.00 0.00 0.00 70 1017.7
20260903090547 70 242 7.0 13.0 0.00 0.00 0.00 70 1017.8
20260903090049 70 225 9.0 13.0 0.00 0.00 0.00 69 1017.8
20260903085548 70 263 8.0 13.0 0.00 0.00 0.00 69 1017.9
20260903085327 70 203 10.0 13.0 0.00 0.00 0.00 68 1018.0
20260903084616 71 227 4.0 11.0 0.00 0.00 0.00 69 1017.9
20260903084602 71 214 9.0 12.0 0.00 0.00 0.00 68 1017.9
20260903083548 70 270 6.0 11.0 0.00 0.00 0.00 69 1017.9
20260903083046 70 249 4.0 11.0 0.00 0.00 0.00 69 1018.0
20260903082547 70 242 7.0 11.0 0.00 0.00 0.00 69 1017.9
20260903082322 71 283 7.0 11.0 0.00 0.00 0.00 65 1017.9
20260903081546 71 234 6.0 10.0 0.00 0.00 0.00 65 1017.8
20260903081047 70 225 7.0 11.0 0.00 0.00 0.00 69 1017.9
20260903080546 69 259 7.0 11.0 0.00 0.00 0.00 69 1017.9
20260903080047 68 220 5.0 10.0 0.00 0.00 0.00 69 1017.8
20260903075547 67 210 6.0 10.0 0.00 0.00 0.00 74 1017.9
20260903075046 65 279 4.0 7.0 0.00 0.00 0.00 74 1018.0
20260903074823 65 229 5.0 7.0 0.00 0.00 0.00 75 1018.0
20260903074046 64 246 4.0 9.0 0.00 0.00 0.00 75 1018.0
20260903073546 64 222 7.0 9.0 0.00 0.00 0.00 75 1018.0
20260903073046 64 259 5.0 9.0 0.00 0.00 0.00 76 1018.0
20260903072545 64 249 6.0 9.0 0.00 0.00 0.00 76 1018.0
20260903072046 63 234 4.0 6.0 0.00 0.00 0.00 77 1018.1
20260903071546 63 262 4.0 6.0 0.00 0.00 0.00 78 1017.9
20260903071413 62 276 4.0 11.0 0.00 0.00 0.00 78 1018.0
20260903071406 63 258 4.0 11.0 0.00 0.00 0.00 78 1018.0
20260903070045 62 232 4.0 7.0 0.00 0.00 0.00 78 1018.1
20260903065545 62 241 5.0 7.0 0.00 0.00 0.00 79 1018.2
20260903065045 62 270 4.0 7.0 0.00 0.00 0.00 79 1018.2
20260903064618 62 241 4.0 7.0 0.00 0.00 0.00 79 1018.3
20260903064607 62 273 4.0 7.0 0.00 0.00 0.00 79 1018.3
20260903063545 62 272 4.0 7.0 0.00 0.00 0.00 80 1018.2
20260903063044 61 238 4.0 7.0 0.00 0.00 0.00 80 1018.3
20260903062544 61 280 5.0 10.0 0.00 0.00 0.00 80 1018.3
20260903062045 61 268 6.0 10.0 0.00 0.00 0.00 80 1018.4
20260903061544 61 273 4.0 10.0 0.00 0.00 0.00 80 1018.2
20260903061045 61 270 4.0 10.0 0.00 0.00 0.00 81 1018.2
20260903060544 60 232 4.0 9.0 0.00 0.00 0.00 81 1018.3
20260903060044 60 252 7.0 9.0 0.00 0.00 0.00 83 1018.2
20260903055544 60 215 6.0 9.0 0.00 0.00 0.00 83 1018.1
20260903055044 60 241 5.0 9.0 0.00 0.00 0.00 84 1018.1
20260903054542 59 244 5.0 9.0 0.00 0.00 0.00 84 1018.2
20260903054324 58 268 2.0 6.0 0.00 0.00 0.00 85 1018.2
20260903053824 58 253 3.0 6.0 0.00 0.00 0.00 85 1018.2
20260903053321 58 135 3.0 5.0 0.00 0.00 0.00 85 1018.1
20260903052821 58 258 2.0 5.0 0.00 0.00 0.00 86 1018.2
20260903052043 57 258 4.0 6.0 0.00 0.00 0.00 86 1018.2
20260903051543 57 262 5.0 7.0 0.00 0.00 0.00 86 1018.2
20260903051042 57 260 3.0 7.0 0.00 0.00 0.00 85 1018.1
20260903050543 57 268 4.0 6.0 0.00 0.00 0.00 85 1018.2
20260903050326 57 244 3.0 5.0 0.00 0.00 0.00 85 1018.1
20260903045544 57 252 3.0 6.0 0.00 0.00 0.00 85 1018.2
20260903045044 57 256 5.0 6.0 0.00 0.00 0.00 85 1018.2
20260903044825 57 265 3.0 5.0 0.00 0.00 0.00 85 1018.1
20260903044044 57 248 3.0 5.0 0.00 0.00 0.00 85 1018.1
20260903043544 57 242 3.0 5.0 0.00 0.00 0.00 85 1018.0
20260903043129 57 251 3.0 5.0 0.00 0.00 0.00 86 1018.1
20260903043113 57 241 4.0 5.0 0.00 0.00 0.00 86 1018.0
20260903042042 57 251 4.0 6.0 0.00 0.00 0.00 86 1018.2
20260903041540 57 253 4.0 6.0 0.00 0.00 0.00 86 1018.1
20260903041042 57 258 4.0 5.0 0.00 0.00 0.00 86 1018.1
20260903040543 57 248 4.0 6.0 0.00 0.00 0.00 85 1018.1
20260903040042 57 248 4.0 6.0 0.00 0.00 0.00 85 1018.0
20260903035542 57 245 3.0 6.0 0.00 0.00 0.00 86 1018.0
20260903035043 57 245 4.0 6.0 0.00 0.00 0.00 86 1017.9
20260903034823 57 256 3.0 5.0 0.00 0.00 0.00 86 1017.9
20260903034043 57 256 2.0 5.0 0.00 0.00 0.00 86 1017.9
20260903033541 58 255 3.0 5.0 0.00 0.00 0.00 86 1017.9
20260903033041 58 255 4.0 5.0 0.00 0.00 0.00 86 1018.0
20260903032541 58 245 4.0 5.0 0.00 0.00 0.00 86 1017.9
20260903032320 58 237 4.0 6.0 0.00 0.00 0.00 86 1017.9
20260903031540 57 239 4.0 7.0 0.00 0.00 0.00 86 1017.9
20260903031041 57 245 4.0 9.0 0.00 0.00 0.00 86 1017.9
20260903030540 57 252 6.0 9.0 0.00 0.00 0.00 86 1017.9
20260903030041 57 259 3.0 5.0 0.00 0.00 0.00 85 1017.8
20260903025541 57 249 3.0 5.0 0.00 0.00 0.00 85 1017.8
20260903025041 57 249 3.0 5.0 0.00 0.00 0.00 85 1017.9
20260903024540 57 246 3.0 5.0 0.00 0.00 0.00 85 1017.9
20260903024041 57 246 4.0 5.0 0.00 0.00 0.00 85 1018.0
20260903023539 57 252 4.0 5.0 0.00 0.00 0.00 85 1017.9
20260903023040 57 252 3.0 5.0 0.00 0.00 0.00 85 1017.9
20260903022540 57 259 3.0 7.0 0.00 0.00 0.00 85 1017.9
20260903022041 57 262 3.0 7.0 0.00 0.00 0.00 85 1018.0
20260903021541 57 255 4.0 6.0 0.00 0.00 0.00 85 1018.0
20260903021040 57 269 4.0 5.0 0.00 0.00 0.00 85 1018.0
20260903020540 57 269 3.0 4.0 0.00 0.00 0.00 85 1018.0
20260903020355 57 269 2.0 3.0 0.00 0.00 0.00 84 1018.0
20260903020057 57 269 2.0 3.0 0.00 0.00 0.00 84 1018.0
20260903015039 57 269 2.0 3.0 0.00 0.00 0.00 85 1018.0
20260903014538 58 269 2.0 3.0 0.00 0.00 0.00 85 1018.0
20260903014316 58 269 2.0 5.0 0.00 0.00 0.00 85 1018.1
20260903013814 58 269 2.0 5.0 0.00 0.00 0.00 85 1018.1
20260903013038 58 270 2.0 4.0 0.00 0.00 0.00 85 1018.2
20260903012816 58 270 2.0 3.0 0.00 0.00 0.00 85 1018.1
20260903012039 58 270 2.0 3.0 0.00 0.00 0.00 85 1018.2
20260903011538 58 270 2.0 3.0 0.00 0.00 0.00 86 1018.2
20260903011037 57 270 2.0 4.0 0.00 0.00 0.00 86 1018.1
20260903010538 57 270 3.0 4.0 0.00 0.00 0.00 86 1018.2
20260903010037 57 273 4.0 4.0 0.00 0.00 0.00 86 1018.2
20260903005538 57 272 4.0 5.0 0.00 0.00 0.00 86 1018.2
20260903005038 57 273 3.0 5.0 0.00 0.00 0.00 86 1018.2
20260903004537 56 275 2.0 5.0 0.00 0.00 0.00 85 1018.1
20260903004037 56 276 4.0 5.0 0.00 0.00 0.00 85 1018.1
20260903003610 56 276 2.0 3.0 0.00 0.00 0.00 85 1018.0
20260903003556 56 276 2.0 3.0 0.00 0.00 0.00 85 1018.1
20260903002537 56 276 0.0 0.0 0.00 0.00 0.00 85 1018.1
20260903002037 56 276 0.0 0.0 0.00 0.00 0.00 85 1018.1
20260903001536 56 276 0.0 0.0 0.00 0.00 0.00 85 1018.1
20260903001037 56 276 0.0 0.0 0.00 0.00 0.00 85 1018.1
20260903000536 56 276 0.0 0.0 0.00 0.00 0.00 85 1018.0
20260903000315 56 276 0.0 0.0 0.00 0.00 0.00 85 1018.1
20260902235535 56 276 0.0 1.0 0.00 0.00 0.00 85 1018.1
20260902235036 56 276 0.0 1.0 0.00 0.00 0.00 85 1018.1
20260902234536 56 276 1.0 1.0 0.00 0.00 0.00 86 1018.1
20260902234037 56 276 0.0 0.0 0.00 0.00 0.00 85 1018.1
20260902233537 56 276 0.0 0.0 0.00 0.00 0.00 85 1018.2
20260902233314 56 276 0.0 0.0 0.00 0.00 0.00 85 1018.3
20260902232535 56 276 0.0 0.0 0.00 0.00 0.00 85 1018.3
20260902232035 56 276 0.0 0.0 0.00 0.00 0.00 85 1018.2
20260902231535 56 276 0.0 0.0 0.00 0.00 0.00 85 1018.2
20260902231034 56 276 0.0 0.0 0.00 0.00 0.00 85 1018.2
20260902230537 56 276 0.0 0.0 0.00 0.00 0.00 85 1018.2
20260902230036 56 276 0.0 0.0 0.00 0.00 0.00 85 1018.2
20260902225534 55 276 0.0 0.0 0.00 0.00 0.00 85 1018.2
20260902225035 55 276 0.0 0.0 0.00 0.00 0.00 85 1018.3
20260902224809 55 276 0.0 0.0 0.00 0.00 0.00 85 1018.3
20260902224034 55 276 0.0 0.0 0.00 0.00 0.00 84 1018.3
20260902223815 55 276 0.0 0.0 0.00 0.00 0.00 84 1018.2
20260902223313 55 276 0.0 0.0 0.00 0.00 0.00 84 1018.3
20260902222533 55 276 0.0 0.0 0.00 0.00 0.00 83 1018.3
20260902222033 55 276 0.0 0.0 0.00 0.00 0.00 83 1018.3
20260902221533 55 276 0.0 0.0 0.00 0.00 0.00 83 1018.3
20260902221034 55 276 0.0 0.0 0.00 0.00 0.00 83 1018.3
20260902220534 55 276 0.0 0.0 0.00 0.00 0.00 83 1018.4
20260902220034 55 276 0.0 0.0 0.00 0.00 0.00 83 1018.4
20260902215504 55 276 0.0 0.0 0.00 0.00 0.00 83 1018.5
20260902215006 55 276 0.0 0.0 0.00 0.00 0.00 83 1018.5
20260902214506 56 276 0.0 0.0 0.00 0.00 0.00 82 1018.4
20260902214006 56 276 0.0 0.0 0.00 0.00 0.00 82 1018.5
20260902213505 56 276 0.0 0.0 0.00 0.00 0.00 82 1018.4
20260902213004 56 276 0.0 0.0 0.00 0.00 0.00 82 1018.4
20260902212506 56 276 0.0 0.0 0.00 0.00 0.00 81 1018.3
20260902212005 56 276 0.0 0.0 0.00 0.00 0.00 81 1018.3
20260902211506 56 276 0.0 0.0 0.00 0.00 0.00 81 1018.4
20260902211005 57 276 0.0 0.0 0.00 0.00 0.00 81 1018.3
20260902210503 57 276 0.0 0.0 0.00 0.00 0.00 81 1018.3
20260902210005 57 276 0.0 0.0 0.00 0.00 0.00 81 1018.3
20260902205745 57 276 0.0 0.0 0.00 0.00 0.00 81 1018.2
20260902205240 57 276 0.0 0.0 0.00 0.00 0.00 81 1018.3
20260902204505 57 276 0.0 0.0 0.00 0.00 0.00 81 1018.3
20260902204245 58 276 0.0 0.0 0.00 0.00 0.00 81 1018.3
20260902203505 58 276 0.0 0.0 0.00 0.00 0.00 81 1018.2
20260902203005 58 276 0.0 0.0 0.00 0.00 0.00 80 1018.4
20260902202744 58 276 0.0 0.0 0.00 0.00 0.00 80 1018.4
20260902202005 58 276 0.0 0.0 0.00 0.00 0.00 79 1018.5
20260902201714 58 276 0.0 0.0 0.00 0.00 0.00 79 1018.5
20260902200934 59 276 0.0 0.0 0.00 0.00 0.00 79 1018.5
20260902200433 59 276 0.0 0.0 0.00 0.00 0.00 79 1018.5
20260902195931 59 276 0.0 0.0 0.00 0.00 0.00 78 1018.4
20260902195433 59 276 0.0 0.0 0.00 0.00 0.00 78 1018.4
20260902194932 59 276 0.0 0.0 0.00 0.00 0.00 78 1018.4
20260902194433 60 276 0.0 2.0 0.00 0.00 0.00 77 1018.4
20260902193907 60 276 1.0 2.0 0.00 0.00 0.00 77 1018.4
20260902193405 60 276 1.0 2.0 0.00 0.00 0.00 77 1018.4
20260902193151 61 276 0.0 0.0 0.00 0.00 0.00 77 1018.4
20260902192407 61 276 0.0 0.0 0.00 0.00 0.00 76 1018.5
20260902191905 61 276 0.0 0.0 0.00 0.00 0.00 77 1018.5
20260902191457 62 276 0.0 0.0 0.00 0.00 0.00 77 1018.4
20260902191453 62 276 0.0 1.0 0.00 0.00 0.00 76 1018.3
20260902191441 62 276 0.0 0.0 0.00 0.00 0.00 76 1018.4
20260902185904 62 276 0.0 1.0 0.00 0.00 0.00 76 1018.3
20260902185404 63 276 0.0 2.0 0.00 0.00 0.00 76 1018.3
20260902184905 63 276 1.0 2.0 0.00 0.00 0.00 76 1018.3
20260902184405 63 276 1.0 2.0 0.00 0.00 0.00 76 1018.3
20260902183903 64 276 0.0 0.0 0.00 0.00 0.00 76 1018.3
20260902183404 64 276 0.0 0.0 0.00 0.00 0.00 75 1018.2
20260902182904 64 276 0.0 2.0 0.00 0.00 0.00 75 1018.1
20260902182402 64 276 0.0 2.0 0.00 0.00 0.00 75 1018.0
20260902181902 65 276 1.0 1.0 0.00 0.00 0.00 74 1018.1
20260902181404 65 276 1.0 1.0 0.00 0.00 0.00 74 1018.1
20260902181146 65 276 0.0 1.0 0.00 0.00 0.00 74 1018.0
20260902180403 65 276 0.0 1.0 0.00 0.00 0.00 74 1018.0
20260902175904 65 276 0.0 2.0 0.00 0.00 0.00 73 1017.9
20260902175404 65 276 1.0 2.0 0.00 0.00 0.00 72 1017.9
20260902175139 66 276 1.0 2.0 0.00 0.00 0.00 72 1017.9
20260902174404 66 276 1.0 2.0 0.00 0.00 0.00 71 1017.9
20260902173902 67 276 2.0 2.0 0.00 0.00 0.00 71 1017.9
20260902173403 67 276 0.0 2.0 0.00 0.00 0.00 69 1018.0
20260902172903 67 276 1.0 2.0 0.00 0.00 0.00 69 1018.0
20260902172404 68 276 0.0 2.0 0.00 0.00 0.00 68 1018.0
20260902172142 68 276 1.0 2.0 0.00 0.00 0.00 68 1017.9
20260902171403 68 276 0.0 4.0 0.00 0.00 0.00 67 1018.0
20260902170903 68 276 1.0 4.0 0.00 0.00 0.00 67 1018.0
20260902170405 68 275 3.0 6.0 0.00 0.00 0.00 68 1018.1
20260902165905 68 276 3.0 6.0 0.00 0.00 0.00 67 1018.0
20260902165346 68 272 2.0 5.0 0.00 0.00 0.00 67 1018.1
20260902165118 68 263 4.0 5.0 0.00 0.00 0.00 67 1018.1
20260902164335 68 275 2.0 5.0 0.00 0.00 0.00 66 1018.1
20260902163833 0 266 3.0 4.0 0.00 0.00 0.00 1018.0
20260902163305 69 284 3.0 4.0 0.00 0.00 0.00 65 1018.1
20260902162805 69 284 3.0 5.0 0.00 0.00 0.00 65 1018.1
20260902162245 69 270 4.0 6.0 0.00 0.00 0.00 65 1018.1
20260902162034 69 273 4.0 9.0 0.00 0.00 0.00 64 1018.0
20260902161245 69 270 5.0 10.0 0.00 0.00 0.00 64 1018.1
20260902160852 70 292 5.0 12.0 0.00 0.00 0.00 63 1018.1
20260902160824 69 277 4.0 11.0 0.00 0.00 0.00 63 1018.0
20260902155747 70 268 9.0 12.0 0.00 0.00 0.00 63 1018.1
20260902155309 70 258 3.0 7.0 0.00 0.00 0.00 63 1018.1
20260902154744 70 272 4.0 9.0 0.00 0.00 0.00 64 1018.1
20260902154248 70 255 4.0 9.0 0.00 0.00 0.00 65 1018.1
20260902154027 70 317 3.0 11.0 0.00 0.00 0.00 65 1018.3
20260902153539 70 248 5.0 11.0 0.00 0.00 0.00 64 1018.3
20260902152744 70 272 5.0 10.0 0.00 0.00 0.00 64 1018.4
20260902152557 70 297 4.0 9.0 0.00 0.00 0.00 65 1018.4
20260902151745 70 256 3.0 11.0 0.00 0.00 0.00 64 1018.4
20260902151244 70 270 5.0 11.0 0.00 0.00 0.00 64 1018.4
20260902150744 70 289 4.0 10.0 0.00 0.00 0.00 64 1018.5
20260902150330 70 231 8.0 12.0 0.00 0.00 0.00 63 1018.4
20260902150311 70 284 7.0 10.0 0.00 0.00 0.00 64 1018.5
20260902145244 70 297 6.0 12.0 0.00 0.00 0.00 64 1018.3
20260902144743 70 242 3.0 11.0 0.00 0.00 0.00 64 1018.5
20260902144244 70 255 5.0 11.0 0.00 0.00 0.00 64 1018.5
20260902143745 71 255 7.0 11.0 0.00 0.00 0.00 65 1018.4
20260902143243 71 244 5.0 7.0 0.00 0.00 0.00 64 1018.5
20260902142743 71 284 2.0 7.0 0.00 0.00 0.00 66 1018.5
20260902142243 71 276 5.0 10.0 0.00 0.00 0.00 65 1018.7
20260902141743 70 296 5.0 10.0 0.00 0.00 0.00 66 1018.7
20260902141533 70 222 6.0 9.0 0.00 0.00 0.00 66 1018.7
20260902140743 70 232 5.0 6.0 0.00 0.00 0.00 67 1018.7
20260902140244 70 251 3.0 9.0 0.00 0.00 0.00 67 1018.7
20260902140022 70 308 4.0 9.0 0.00 0.00 0.00 67 1018.8
20260902135243 70 249 5.0 7.0 0.00 0.00 0.00 66 1018.8
20260902134742 70 262 2.0 7.0 0.00 0.00 0.00 68 1018.9
20260902134243 70 252 4.0 12.0 0.00 0.00 0.00 67 1019.0
20260902133743 70 237 5.0 12.0 0.00 0.00 0.00 66 1018.9
20260902133243 70 227 5.0 9.0 0.00 0.00 0.00 65 1018.9
20260902132743 70 217 4.0 10.0 0.00 0.00 0.00 67 1019.0
20260902132336 69 256 5.0 9.0 0.00 0.00 0.00 67 1019.0
20260902132312 70 258 4.0 10.0 0.00 0.00 0.00 66 1019.0
20260902131240 69 208 5.0 12.0 0.00 0.00 0.00 67 1019.1
20260902130740 69 272 7.0 12.0 0.00 0.00 0.00 68 1019.1
20260902130532 69 182 8.0 12.0 0.00 0.00 0.00 67 1019.2
20260902125742 69 241 7.0 10.0 0.00 0.00 0.00 70 1019.1
20260902125242 69 241 6.0 10.0 0.00 0.00 0.00 69 1019.1
20260902124742 69 273 6.0 10.0 0.00 0.00 0.00 68 1019.2
20260902124242 69 218 6.0 10.0 0.00 0.00 0.00 68 1019.2
20260902123740 69 272 3.0 11.0 0.00 0.00 0.00 68 1019.3
20260902123542 69 222 4.0 14.0 0.00 0.00 0.00 67 1019.2
20260902122740 70 214 8.0 14.0 0.00 0.00 0.00 68 1019.3
20260902122243 69 218 8.0 11.0 0.00 0.00 0.00 68 1019.3
20260902121741 69 213 6.0 10.0 0.00 0.00 0.00 68 1019.4
20260902121241 69 245 6.0 9.0 0.00 0.00 0.00 68 1019.3
20260902120739 69 232 5.0 9.0 0.00 0.00 0.00 66 1019.4
20260902120534 69 325 5.0 12.0 0.00 0.00 0.00 66 1019.4
20260902115741 70 211 9.0 12.0 0.00 0.00 0.00 67 1019.5
20260902115242 70 231 5.0 10.0 0.00 0.00 0.00 67 1019.4
20260902114740 70 225 4.0 12.0 0.00 0.00 0.00 66 1019.4
20260902114241 70 268 8.0 12.0 0.00 0.00 0.00 66 1019.4
20260902113740 70 245 5.0 10.0 0.00 0.00 0.00 67 1019.4
20260902113240 70 197 4.0 12.0 0.00 0.00 0.00 66 1019.5
20260902112741 70 266 6.0 12.0 0.00 0.00 0.00 66 1019.4
20260902112241 70 249 9.0 12.0 0.00 0.00 0.00 65 1019.4
20260902111741 71 225 6.0 10.0 0.00 0.00 0.00 64 1019.5
20260902111240 71 218 6.0 13.0 0.00 0.00 0.00 65 1019.5
20260902110741 71 245 7.0 13.0 0.00 0.00 0.00 64 1019.6
20260902110239 71 279 4.0 10.0 0.00 0.00 0.00 66 1019.7
20260902105741 71 252 4.0 10.0 0.00 0.00 0.00 66 1019.6
20260902105241 71 283 7.0 10.0 0.00 0.00 0.00 66 1019.6
20260902104741 71 253 2.0 10.0 0.00 0.00 0.00 67 1019.5
20260902104238 70 225 7.0 10.0 0.00 0.00 0.00 67 1019.6
20260902104045 70 303 3.0 10.0 0.00 0.00 0.00 68 1019.6
20260902103238 70 234 8.0 11.0 0.00 0.00 0.00 67 1019.7
20260902102739 70 272 7.0 11.0 0.00 0.00 0.00 66 1019.7
20260902102239 70 266 3.0 11.0 0.00 0.00 0.00 66 1019.8
20260902101739 71 277 6.0 11.0 0.00 0.00 0.00 65 1019.9
20260902101238 71 300 3.0 5.0 0.00 0.00 0.00 67 1020.0
20260902101100 71 282 3.0 11.0 0.00 0.00 0.00 67 1019.9
20260902100239 70 231 7.0 11.0 0.00 0.00 0.00 68 1020.0
20260902095738 70 272 7.0 11.0 0.00 0.00 0.00 68 1020.0
20260902095238 70 262 6.0 11.0 0.00 0.00 0.00 69 1020.0
20260902094740 69 265 4.0 11.0 0.00 0.00 0.00 69 1020.0
20260902094238 69 258 3.0 11.0 0.00 0.00 0.00 70 1020.0
20260902093737 69 263 7.0 11.0 0.00 0.00 0.00 69 1020.0
20260902093238 70 215 2.0 9.0 0.00 0.00 0.00 70 1020.0
20260902092737 69 242 4.0 10.0 0.00 0.00 0.00 70 1020.0